Tracking 19281 objects as of 16-Nov-2018
HD Live streaming from Space Station
objects crossing your sky now

IRS P6

Track IRS P6 now!
10-day predictions
IRS P6 is classified as:


NORAD ID: 28051
Int'l Code: 2003-046A
Perigee: 744.4 km
Apogee: 825.6 km
Inclination: 98.5 °
Period: 100.4 minutes
Semi major axis: 7156 km
RCS: 5.9386 m2 (large)
Launch date: October 17, 2003
Source: India (IND)
Launch site: SRIHARIKOTA (SRI)

Monitor agricultural, land, and water resources.
aabbcc
Your satellite tracking list
Your tracking list is empty




NASA's NSSDC Master Catalog

Two Line Element Set (TLE):
1 28051U 03046A   18320.42703373  .00000021  00000-0  22918-4 0  9991
2 28051  98.5417  35.9647 0056748 304.3959  55.1868 14.34157031783391
Source of the keplerian elements: AFSPC